Regional Weather Roundup
Issued by NWS Cleveland, OH

Home | Current Version | Previous Version | Graphics & Text | Print | Product List | Glossary On
Versions: 1 2 3 4 5 6 7 8 9 10 11 12 13 14 15 16 17 18 19 20 21 22 23 24 25 26 27 28 29 30 31 32 33 34 35 36 37 38 39 40 41 42 43 44 45 46 47 48 49 50
000
ASUS41 KCLE 180002
RWRCLE
OHIO REGIONAL WEATHER ROUNDUP
NATIONAL WEATHER SERVICE CLEVELAND, OH
700 PM EST WED JAN 17 2018

NOTE: "FAIR" INDICATES FEW OR NO CLOUDS BELOW 12,000 FEET WITH NO
SIGNIFICANT WEATHER AND/OR OBSTRUCTIONS TO VISIBILITY.

OHZ001>008-015>018-024>027-034-035-043-044-180100-
   NORTHWEST OHIO

CITY           SKY/WX    TMP DP  RH WIND       PRES   REMARKS
DEFIANCE       FAIR      14   7  73 SW7       30.39S WCI   4
FINDLAY        FAIR      16   6  65 SW12      30.38F WCI   3
TOLEDO EXPRESS FAIR      16  10  77 SW10      30.35F WCI   4
TOLEDO EXEC    FAIR      16   8  71 SW15      30.36F WCI   1
LIMA           FAIR      14   8  77 SW13      30.40F WCI   0
$$

OHZ009>014-019>023-028>033-038-089-180100-
   NORTHEAST OHIO

CITY           SKY/WX    TMP DP  RH WIND       PRES   REMARKS
CLE-HOPKINS    FAIR      16   8  71 SW9G21    30.38F WCI   4
CLE-LAKEFRONT  FAIR      18   8  65 SW18G25   30.35F WCI   2
CUY CO. ARPT   CLEAR     18  10  73 SW13      30.34F WCI   4
LORAIN-ELYRIA  FAIR      13   4  67 SW14      30.36F WCI  -2
ASHTABULA      FAIR      14   7  73 S12       30.32F WCI   0
AKRON-CANTON   FAIR       8   2  76 SW8       30.35F WCI  -4
WOOSTER        FAIR      11   5  77 SW9       30.36F WCI  -2
MANSFIELD      FAIR      11   6  81 SW12      30.35F WCI  -3
YOUNGSTOWN     FAIR      10   4  76 SW9       30.33S WCI  -3
$$

OHZ042-051>053-060>062-070>072-077>081-180100-
  SOUTHWEST OHIO

CITY           SKY/WX    TMP DP  RH WIND       PRES   REMARKS
CINC-COVINGTON FAIR      15  10  80 SW7       30.49S WCI   5
CINC-LUNKEN    FAIR      16   9  74 SW8       30.53F WCI   5
HAMILTON       FAIR      17   9  70 SW7       30.51F WCI   8
DAYTON         FAIR      10   7  87 SW10      30.45F WCI  -4
WRIGHT-PAT AFB CLEAR     15   5  64 SW9       30.45F WCI   3
DAYTON GENERAL FAIR      16   8  71 SW6       30.45F WCI   7
WILMINGTON     FAIR       9   6  88 SW6       30.45F WCI  -1
$$

OHZ036-037-039>041-045>050-054>059-063>069-073>076-082>088-180100-
  CENTRAL AND SOUTHEAST OHIO

CITY           SKY/WX    TMP DP  RH WIND       PRES   REMARKS
COLUMBUS       FAIR      11   6  81 S6        30.45F WCI   1
OSU AIRPORT    FAIR      11   6  81 SW7       30.43F WCI   0
BOLTON FIELD   CLEAR      3   1  92 SW6       30.45F WCI  -8
RICKENBACK AFB FAIR       7   4  85 S7        30.46F WCI  -4
NEWARK         FAIR       8   3  80 S6        30.43F WCI  -2
MARION         FAIR      11   6  81 SW8       30.40F WCI  -1
LANCASTER      FAIR      -3  -6  87 CALM      30.45F
ZANESVILLE     FAIR       9   2  73 SW3       30.44F
NEW PHILLY     NOT AVBL
$$




USA.gov is the U.S. government's official web portal to all federal, state and local government web resources and services.